SCX527 KMSP-MMCZ

Flight info

Callsign SCX527
Flight time 3h 22m
Altitude 35000
Route RST1 ALO DCT KK63I DCT ARG DCT LEV/N0446F370 L214 IRDOV UL214 XORAR DCT VIGTU VIGTU1A
Aircraft B739/M-SDE2E3FGHIRWXY/LB1

Departure

Time 2026-04-25 17:50
Airport Minneapolis–Saint Paul International Airport / Wold–Chamberlain Field (KMSP)

Arrival

Time 2026-04-25 21:13
Airport Cozumel International Airport (MMCZ)
Time Latitude Longitude Altitude Speed Heading
2026-04-25 17:23 44.87465 -93.22896 824 ft 0 kts 135°
2026-04-25 17:39 44.87471 -93.22905 824 ft 1 kts 136°
2026-04-25 17:39 44.87479 -93.22915 824 ft 1 kts 138°
2026-04-25 17:40 44.87487 -93.22925 823 ft 1 kts 141°
2026-04-25 17:40 44.87490 -93.22928 823 ft 0 kts 144°
2026-04-25 17:40 44.87494 -93.22932 823 ft 4 kts 145°
2026-04-25 17:41 44.87516 -93.22951 821 ft 4 kts 162°
2026-04-25 17:41 44.87542 -93.22956 822 ft 4 kts 188°
2026-04-25 17:41 44.87567 -93.22944 821 ft 4 kts 213°
2026-04-25 17:41 44.87576 -93.22936 824 ft 0 kts 217°
2026-04-25 17:44 44.87543 -93.22977 821 ft 11 kts 225°
2026-04-25 17:44 44.87491 -93.23050 824 ft 10 kts 225°
2026-04-25 17:44 44.87456 -93.23098 824 ft 10 kts 224°
2026-04-25 17:44 44.87405 -93.23182 824 ft 13 kts 255°
2026-04-25 17:45 44.87450 -93.23288 825 ft 13 kts 316°
2026-04-25 17:45 44.87493 -93.23346 825 ft 13 kts 316°
2026-04-25 17:45 44.87544 -93.23492 825 ft 12 kts 292°
2026-04-25 17:45 44.87576 -93.23603 824 ft 12 kts 291°
2026-04-25 17:46 44.87604 -93.23712 824 ft 12 kts 290°
2026-04-25 17:46 44.87661 -93.23784 824 ft 11 kts 345°
2026-04-25 17:46 44.87738 -93.23804 824 ft 11 kts 350°
2026-04-25 17:46 44.87812 -93.23822 824 ft 11 kts 349°
2026-04-25 17:47 44.87890 -93.23843 824 ft 14 kts 348°
2026-04-25 17:47 44.87989 -93.23871 824 ft 14 kts 348°
2026-04-25 17:47 44.88085 -93.23895 824 ft 14 kts 351°
2026-04-25 17:47 44.88177 -93.23919 824 ft 13 kts 348°
2026-04-25 17:48 44.88385 -93.23974 824 ft 18 kts 349°
2026-04-25 17:48 44.88504 -93.24004 824 ft 17 kts 349°
2026-04-25 17:48 44.88619 -93.24034 823 ft 16 kts 349°
2026-04-25 17:49 44.88729 -93.24066 823 ft 16 kts 341°
2026-04-25 17:49 44.88768 -93.24187 823 ft 15 kts 255°
2026-04-25 17:49 44.88737 -93.24220 822 ft 0 kts 171°
2026-04-25 17:49 44.88562 -93.24178 822 ft 60 kts 169°
2026-04-25 17:50 44.87933 -93.24013 825 ft 121 kts 169°
2026-04-25 17:50 44.86938 -93.23754 888 ft 162 kts 169°
2026-04-25 17:50 44.85783 -93.23515 1359 ft 173 kts 170°
2026-04-25 17:50 44.84546 -93.23282 1898 ft 187 kts 172°
2026-04-25 17:51 44.83209 -93.23128 2407 ft 197 kts 171°
2026-04-25 17:51 44.81793 -93.22791 2630 ft 216 kts 168°
2026-04-25 17:51 44.80266 -93.22386 2800 ft 231 kts 168°
2026-04-25 17:51 44.78657 -93.21972 3100 ft 239 kts 167°
2026-04-25 17:52 44.76954 -93.21532 3272 ft 257 kts 168°
2026-04-25 17:52 44.75776 -93.21237 3590 ft 261 kts 169°
2026-04-25 17:52 44.73422 -93.20669 4599 ft 257 kts 172°
2026-04-25 17:52 44.71647 -93.20244 5278 ft 260 kts 173°
2026-04-25 17:53 44.69856 -93.19815 5978 ft 261 kts 173°
2026-04-25 17:53 44.68060 -93.19386 6693 ft 262 kts 174°
2026-04-25 17:53 44.66271 -93.18960 7444 ft 260 kts 175°
2026-04-25 17:53 44.64496 -93.18538 8167 ft 258 kts 175°
2026-04-25 17:54 44.62732 -93.18011 8866 ft 262 kts 166°
2026-04-25 17:54 44.61058 -93.16915 9551 ft 267 kts 161°
2026-04-25 17:54 44.59400 -93.15717 10191 ft 268 kts 161°
2026-04-25 17:54 44.57720 -93.14514 10436 ft 284 kts 161°
2026-04-25 17:55 44.55893 -93.13221 10561 ft 303 kts 160°
2026-04-25 17:55 44.53953 -93.11854 10716 ft 321 kts 160°
2026-04-25 17:55 44.51922 -93.10423 11037 ft 331 kts 160°
2026-04-25 17:55 44.49845 -93.08960 11518 ft 336 kts 160°
2026-04-25 17:56 44.47741 -93.07483 12058 ft 340 kts 160°
2026-04-25 17:56 44.45613 -93.05997 12600 ft 344 kts 161°
2026-04-25 17:56 44.43459 -93.04495 13171 ft 347 kts 160°
2026-04-25 17:56 44.41296 -93.02989 13863 ft 347 kts 161°
2026-04-25 17:57 44.39120 -93.01479 14386 ft 351 kts 161°
2026-04-25 17:57 44.36924 -92.99956 14961 ft 352 kts 160°
2026-04-25 17:57 44.34732 -92.98434 15610 ft 353 kts 160°
2026-04-25 17:57 44.33273 -92.97421 15974 ft 355 kts 160°
2026-04-25 17:58 44.30291 -92.95355 16695 ft 360 kts 160°
2026-04-25 17:58 44.28039 -92.93796 17235 ft 362 kts 160°
2026-04-25 17:58 44.25771 -92.92228 17785 ft 365 kts 160°
2026-04-25 17:58 44.23486 -92.90649 18308 ft 368 kts 160°
2026-04-25 17:59 44.21216 -92.89082 18768 ft 371 kts 160°
2026-04-25 17:59 44.18886 -92.87474 19164 ft 376 kts 160°
2026-04-25 17:59 44.16530 -92.85848 19575 ft 380 kts 160°
2026-04-25 17:59 44.14147 -92.84207 19984 ft 384 kts 160°
2026-04-25 18:00 44.11733 -92.82546 20386 ft 389 kts 160°
2026-04-25 18:00 44.09298 -92.80874 20849 ft 392 kts 160°
2026-04-25 18:00 44.06840 -92.79189 21248 ft 396 kts 160°
2026-04-25 18:00 44.04348 -92.77482 21642 ft 400 kts 160°
2026-04-25 18:01 44.01837 -92.75762 22042 ft 404 kts 159°
2026-04-25 18:01 43.99302 -92.74027 22428 ft 408 kts 159°
2026-04-25 18:01 43.96753 -92.72282 22917 ft 409 kts 159°
2026-04-25 18:01 43.94192 -92.70531 23338 ft 413 kts 159°
2026-04-25 18:02 43.91600 -92.68762 23694 ft 417 kts 159°
2026-04-25 18:02 43.88986 -92.66978 24038 ft 420 kts 159°
2026-04-25 18:02 43.86400 -92.65213 24453 ft 420 kts 159°
2026-04-25 18:02 43.83791 -92.63436 24868 ft 421 kts 159°
2026-04-25 18:03 43.81161 -92.61649 25230 ft 423 kts 159°
2026-04-25 18:03 43.78461 -92.60060 25554 ft 420 kts 167°
2026-04-25 18:03 43.75635 -92.59124 25905 ft 415 kts 177°
2026-04-25 18:03 43.72766 -92.58655 26242 ft 417 kts 179°
2026-04-25 18:04 43.69871 -92.58219 26546 ft 419 kts 179°
2026-04-25 18:04 43.66961 -92.57781 26860 ft 422 kts 179°
2026-04-25 18:04 43.64035 -92.57331 27174 ft 425 kts 179°
2026-04-25 18:04 43.61083 -92.56866 27487 ft 427 kts 178°
2026-04-25 18:05 43.58118 -92.56392 27712 ft 432 kts 178°
2026-04-25 18:05 43.55151 -92.55912 27950 ft 435 kts 178°
2026-04-25 18:05 43.52132 -92.55420 28286 ft 437 kts 178°
2026-04-25 18:05 43.49104 -92.54925 28611 ft 439 kts 178°
2026-04-25 18:06 43.46060 -92.54428 28882 ft 441 kts 178°
2026-04-25 18:06 43.42996 -92.53928 29166 ft 444 kts 178°
2026-04-25 18:06 43.39919 -92.53427 29426 ft 446 kts 178°
2026-04-25 18:06 43.36815 -92.52923 29573 ft 452 kts 178°
2026-04-25 18:07 43.33679 -92.52415 29712 ft 457 kts 178°
2026-04-25 18:07 43.27272 -92.51380 29826 ft 469 kts 178°
2026-04-25 18:08 43.20759 -92.50327 29957 ft 478 kts 178°
2026-04-25 18:08 43.14115 -92.49251 30142 ft 482 kts 178°
2026-04-25 18:08 43.10785 -92.48712 30362 ft 480 kts 178°
2026-04-25 18:09 43.07473 -92.48175 30622 ft 478 kts 178°
2026-04-25 18:09 43.04175 -92.47643 30875 ft 476 kts 178°
2026-04-25 18:09 43.00881 -92.47113 31081 ft 475 kts 178°
2026-04-25 18:10 42.94306 -92.46061 31340 ft 476 kts 178°
2026-04-25 18:10 42.91020 -92.45535 31527 ft 475 kts 178°
2026-04-25 18:10 42.87785 -92.45017 31741 ft 474 kts 178°
2026-04-25 18:10 42.84516 -92.44494 31982 ft 472 kts 178°
2026-04-25 18:11 42.81262 -92.43974 32187 ft 471 kts 178°
2026-04-25 18:11 42.78006 -92.43456 32364 ft 470 kts 178°
2026-04-25 18:11 42.74762 -92.42940 32541 ft 469 kts 178°
2026-04-25 18:11 42.71521 -92.42425 32740 ft 468 kts 178°
2026-04-25 18:12 42.68287 -92.41910 32935 ft 467 kts 179°
2026-04-25 18:12 42.65067 -92.41399 33116 ft 466 kts 179°
2026-04-25 18:12 42.61848 -92.40889 33294 ft 465 kts 179°
2026-04-25 18:12 42.58637 -92.40381 33451 ft 464 kts 178°
2026-04-25 18:13 42.55424 -92.39872 33575 ft 465 kts 178°
2026-04-25 18:13 42.52213 -92.39303 33682 ft 466 kts 177°
2026-04-25 18:13 42.49006 -92.38669 33839 ft 465 kts 176°
2026-04-25 18:14 42.42623 -92.37349 34155 ft 463 kts 176°
2026-04-25 18:14 42.39429 -92.36691 34222 ft 464 kts 177°
2026-04-25 18:14 42.33023 -92.35396 34291 ft 467 kts 176°
2026-04-25 18:15 42.29814 -92.34755 34397 ft 466 kts 176°
2026-04-25 18:15 42.26606 -92.34116 34507 ft 466 kts 176°
2026-04-25 18:15 42.20190 -92.32844 34653 ft 467 kts 176°
2026-04-25 18:16 42.13759 -92.31572 34805 ft 467 kts 176°
2026-04-25 18:16 42.07327 -92.30301 34981 ft 466 kts 176°
2026-04-25 18:17 42.04162 -92.29677 35000 ft 466 kts 176°
2026-04-25 18:17 41.97736 -92.28412 35005 ft 467 kts 176°
2026-04-25 18:18 41.91311 -92.27149 35014 ft 467 kts 176°
2026-04-25 18:18 41.84871 -92.25886 35007 ft 468 kts 176°
2026-04-25 18:19 41.78427 -92.24624 35008 ft 468 kts 176°
2026-04-25 18:19 41.71968 -92.23362 34999 ft 468 kts 176°
2026-04-25 18:20 41.65541 -92.22109 34997 ft 468 kts 176°
2026-04-25 18:20 41.59093 -92.20853 35006 ft 468 kts 176°
2026-04-25 18:21 41.52691 -92.19611 34996 ft 467 kts 176°
2026-04-25 18:21 41.46268 -92.18365 35000 ft 465 kts 176°
2026-04-25 18:22 41.39857 -92.17126 34998 ft 465 kts 176°
2026-04-25 18:22 41.33450 -92.15890 34999 ft 465 kts 176°
2026-04-25 18:23 41.27044 -92.14656 34994 ft 465 kts 176°
2026-04-25 18:23 41.20638 -92.13424 34998 ft 465 kts 176°
2026-04-25 18:24 41.14232 -92.12194 35003 ft 465 kts 176°
2026-04-25 18:24 41.07831 -92.10969 34989 ft 465 kts 176°
2026-04-25 18:25 41.01423 -92.09744 34997 ft 465 kts 176°
2026-04-25 18:25 40.95013 -92.08522 34999 ft 465 kts 176°
2026-04-25 18:26 40.88604 -92.07301 34988 ft 465 kts 176°
2026-04-25 18:26 40.82192 -92.06083 34997 ft 466 kts 176°
2026-04-25 18:27 40.75814 -92.04874 34996 ft 466 kts 176°
2026-04-25 18:27 40.69393 -92.03658 34997 ft 466 kts 176°
2026-04-25 18:28 40.62959 -92.02442 34993 ft 466 kts 176°
2026-04-25 18:28 40.56535 -92.01231 34995 ft 466 kts 176°
2026-04-25 18:29 40.46902 -91.99349 34991 ft 467 kts 174°
2026-04-25 18:30 40.34110 -91.96027 34995 ft 469 kts 173°
2026-04-25 18:30 40.27754 -91.94383 34990 ft 469 kts 173°
2026-04-25 18:31 40.21347 -91.92762 34981 ft 469 kts 173°
2026-04-25 18:31 40.14936 -91.91153 34991 ft 469 kts 173°
2026-04-25 18:32 40.08512 -91.89545 34987 ft 469 kts 173°
2026-04-25 18:32 40.02094 -91.87939 34985 ft 470 kts 173°
2026-04-25 18:33 39.95662 -91.86333 34984 ft 470 kts 173°
2026-04-25 18:33 39.89230 -91.84729 34983 ft 471 kts 173°
2026-04-25 18:34 39.82780 -91.83124 34984 ft 472 kts 173°
2026-04-25 18:34 39.77417 -91.81792 34961 ft 472 kts 173°
2026-04-25 18:35 39.70949 -91.80188 34980 ft 473 kts 173°
2026-04-25 18:35 39.64471 -91.78585 34984 ft 474 kts 173°
2026-04-25 18:36 39.58018 -91.76991 34977 ft 475 kts 173°
2026-04-25 18:36 39.51519 -91.75388 34970 ft 476 kts 174°
2026-04-25 18:37 39.45009 -91.73786 34970 ft 476 kts 174°
2026-04-25 18:37 39.38493 -91.72186 34970 ft 477 kts 174°
2026-04-25 18:38 39.31975 -91.70587 34949 ft 477 kts 174°
2026-04-25 18:38 39.25443 -91.68989 34970 ft 478 kts 174°
2026-04-25 18:39 39.18910 -91.67394 34972 ft 478 kts 174°
2026-04-25 18:39 39.12363 -91.65798 34971 ft 479 kts 174°
2026-04-25 18:40 39.05814 -91.64204 34966 ft 479 kts 174°
2026-04-25 18:40 38.99302 -91.62623 34964 ft 480 kts 174°
2026-04-25 18:41 38.92737 -91.61031 34965 ft 480 kts 174°
2026-04-25 18:41 38.86164 -91.59440 34934 ft 480 kts 175°
2026-04-25 18:42 38.80707 -91.58122 34950 ft 480 kts 175°
2026-04-25 18:42 38.73029 -91.56272 34957 ft 480 kts 175°
2026-04-25 18:43 38.66459 -91.54692 34954 ft 481 kts 175°
2026-04-25 18:43 38.59876 -91.53111 34952 ft 481 kts 175°
2026-04-25 18:44 38.53292 -91.51533 34947 ft 482 kts 175°
2026-04-25 18:44 38.46746 -91.49967 34959 ft 482 kts 175°
2026-04-25 18:45 38.40145 -91.48390 34958 ft 482 kts 175°
2026-04-25 18:45 38.33544 -91.46817 34964 ft 483 kts 175°
2026-04-25 18:46 38.26942 -91.45246 34966 ft 483 kts 175°
2026-04-25 18:46 38.20338 -91.43678 34971 ft 483 kts 175°
2026-04-25 18:47 38.13733 -91.42112 34960 ft 483 kts 175°
2026-04-25 18:47 38.07122 -91.40548 34963 ft 483 kts 175°
2026-04-25 18:48 38.00511 -91.38987 34968 ft 483 kts 175°
2026-04-25 18:48 37.93947 -91.37440 34926 ft 483 kts 176°
2026-04-25 18:49 37.87332 -91.35883 34950 ft 483 kts 176°
2026-04-25 18:49 37.80724 -91.34331 34960 ft 483 kts 176°
2026-04-25 18:50 37.74117 -91.32782 34951 ft 483 kts 176°
2026-04-25 18:50 37.67523 -91.31239 34939 ft 483 kts 176°
2026-04-25 18:51 37.62029 -91.29955 34947 ft 483 kts 176°
2026-04-25 18:51 37.54337 -91.28162 34944 ft 483 kts 176°
2026-04-25 18:52 37.47724 -91.26622 34939 ft 483 kts 176°
2026-04-25 18:52 37.41108 -91.25084 34932 ft 483 kts 176°
2026-04-25 18:53 37.34500 -91.23552 34931 ft 483 kts 176°
2026-04-25 18:53 37.27879 -91.22020 34933 ft 483 kts 176°
2026-04-25 18:54 37.17957 -91.19727 34927 ft 483 kts 176°
2026-04-25 18:55 37.11342 -91.18203 34929 ft 483 kts 176°
2026-04-25 18:55 37.04734 -91.16684 34935 ft 483 kts 176°
2026-04-25 18:56 36.98160 -91.15173 34900 ft 483 kts 176°
2026-04-25 18:56 36.91547 -91.13657 34926 ft 483 kts 176°
2026-04-25 18:57 36.84936 -91.12144 34927 ft 482 kts 176°
2026-04-25 18:57 36.78326 -91.10634 34928 ft 482 kts 176°
2026-04-25 18:58 36.71725 -91.09128 34917 ft 482 kts 176°
2026-04-25 18:58 36.61833 -91.06878 34928 ft 482 kts 176°
2026-04-25 18:59 36.48629 -91.03882 34896 ft 482 kts 176°
2026-04-25 19:00 36.38728 -91.01643 34927 ft 482 kts 176°
2026-04-25 19:01 36.28859 -90.99416 34930 ft 482 kts 176°
2026-04-25 19:01 36.22256 -90.97929 34923 ft 482 kts 176°
2026-04-25 19:02 36.12344 -90.95702 34935 ft 483 kts 176°
2026-04-25 19:03 36.04609 -90.94387 34945 ft 478 kts 181°
2026-04-25 19:03 35.95788 -90.93323 34931 ft 478 kts 181°
2026-04-25 19:04 35.85850 -90.92074 34942 ft 479 kts 181°
2026-04-25 19:05 35.72612 -90.90330 34910 ft 479 kts 181°
2026-04-25 19:06 35.65986 -90.89456 34923 ft 479 kts 181°
2026-04-25 19:06 35.56034 -90.88150 34933 ft 479 kts 181°
2026-04-25 19:07 35.46076 -90.86848 34924 ft 480 kts 181°
2026-04-25 19:08 35.36153 -90.85553 34936 ft 480 kts 181°
2026-04-25 19:09 35.23968 -90.83967 34882 ft 481 kts 181°
2026-04-25 19:10 35.12841 -90.82523 34926 ft 482 kts 181°
2026-04-25 19:10 35.06161 -90.81658 34928 ft 483 kts 181°
2026-04-25 19:11 34.99509 -90.80798 34923 ft 483 kts 181°
2026-04-25 19:11 34.92811 -90.79933 34915 ft 484 kts 181°
2026-04-25 19:12 34.86107 -90.79070 34916 ft 485 kts 181°
2026-04-25 19:12 34.79391 -90.78206 34916 ft 486 kts 181°
2026-04-25 19:13 34.72665 -90.77342 34887 ft 486 kts 181°
2026-04-25 19:13 34.65932 -90.76478 34910 ft 487 kts 181°
2026-04-25 19:14 34.59186 -90.75624 34913 ft 487 kts 181°
2026-04-25 19:14 34.52444 -90.74757 34914 ft 487 kts 181°
2026-04-25 19:15 34.45750 -90.73899 34885 ft 487 kts 181°
2026-04-25 19:15 34.39004 -90.73039 34920 ft 488 kts 181°
2026-04-25 19:16 34.32242 -90.72179 34932 ft 489 kts 181°
2026-04-25 19:16 34.25470 -90.71320 34928 ft 490 kts 181°
2026-04-25 19:17 34.18687 -90.70459 34906 ft 490 kts 181°
2026-04-25 19:17 34.11897 -90.69600 34916 ft 491 kts 181°
2026-04-25 19:18 34.05092 -90.68740 34925 ft 492 kts 181°
2026-04-25 19:18 33.98280 -90.67880 34912 ft 492 kts 181°
2026-04-25 19:19 33.91460 -90.67021 34901 ft 493 kts 181°
2026-04-25 19:19 33.84628 -90.66162 34903 ft 494 kts 181°
2026-04-25 19:20 33.77785 -90.65303 34906 ft 495 kts 181°
2026-04-25 19:20 33.70932 -90.64444 34918 ft 495 kts 181°
2026-04-25 19:21 33.64121 -90.63591 34912 ft 495 kts 181°
2026-04-25 19:21 33.53808 -90.62303 34925 ft 497 kts 181°
2026-04-25 19:22 33.46919 -90.61445 34921 ft 498 kts 181°
2026-04-25 19:23 33.36570 -90.60157 34915 ft 499 kts 181°
2026-04-25 19:23 33.26250 -90.58875 34912 ft 499 kts 181°
2026-04-25 19:24 33.19347 -90.58020 34915 ft 499 kts 181°
2026-04-25 19:25 33.06645 -90.56451 34910 ft 500 kts 181°
2026-04-25 19:25 32.99769 -90.55603 34911 ft 501 kts 181°
2026-04-25 19:26 32.92836 -90.54750 34909 ft 501 kts 181°
2026-04-25 19:26 32.85883 -90.53895 34892 ft 502 kts 181°
2026-04-25 19:27 32.80121 -90.53188 34903 ft 503 kts 181°
2026-04-25 19:27 32.71980 -90.52190 34915 ft 504 kts 181°
2026-04-25 19:28 32.64988 -90.51335 34916 ft 505 kts 181°
2026-04-25 19:28 32.57996 -90.50481 34903 ft 505 kts 181°
2026-04-25 19:29 32.51044 -90.49633 34903 ft 506 kts 181°
2026-04-25 19:29 32.44036 -90.48779 34907 ft 507 kts 181°
2026-04-25 19:30 32.37014 -90.47925 34903 ft 507 kts 181°
2026-04-25 19:30 32.29985 -90.47072 34898 ft 507 kts 181°
2026-04-25 19:31 32.22958 -90.46219 34908 ft 508 kts 181°
2026-04-25 19:31 32.15918 -90.45367 34904 ft 507 kts 181°
2026-04-25 19:32 32.08909 -90.44520 34903 ft 506 kts 181°
2026-04-25 19:32 32.03080 -90.43816 34898 ft 506 kts 181°
2026-04-25 19:33 31.94945 -90.42837 34896 ft 506 kts 181°
2026-04-25 19:33 31.87940 -90.41995 34902 ft 506 kts 181°
2026-04-25 19:34 31.80928 -90.41153 34904 ft 506 kts 181°
2026-04-25 19:34 31.73920 -90.40312 34897 ft 506 kts 181°
2026-04-25 19:35 31.66907 -90.39473 34902 ft 506 kts 181°
2026-04-25 19:35 31.59890 -90.38634 34908 ft 506 kts 181°
2026-04-25 19:36 31.52868 -90.37803 34909 ft 507 kts 181°
2026-04-25 19:36 31.45838 -90.36964 34907 ft 508 kts 180°
2026-04-25 19:37 31.38843 -90.36127 34919 ft 509 kts 180°
2026-04-25 19:37 31.31792 -90.35288 34920 ft 510 kts 180°
2026-04-25 19:38 31.24732 -90.34450 34926 ft 510 kts 180°
2026-04-25 19:38 31.17696 -90.33615 34916 ft 507 kts 180°
2026-04-25 19:39 31.10672 -90.32784 34921 ft 506 kts 180°
2026-04-25 19:39 31.03693 -90.31961 34920 ft 507 kts 180°
2026-04-25 19:40 30.96702 -90.31137 34914 ft 507 kts 180°
2026-04-25 19:40 30.89682 -90.30310 34898 ft 507 kts 180°
2026-04-25 19:41 30.82663 -90.29481 34909 ft 507 kts 180°
2026-04-25 19:41 30.76834 -90.28798 34913 ft 507 kts 180°
2026-04-25 19:42 30.68616 -90.27837 34910 ft 507 kts 180°
2026-04-25 19:42 30.61587 -90.27014 34915 ft 507 kts 180°
2026-04-25 19:43 30.54606 -90.26198 34914 ft 507 kts 180°
2026-04-25 19:43 30.47587 -90.25378 34913 ft 507 kts 180°
2026-04-25 19:44 30.40561 -90.24559 34913 ft 507 kts 180°
2026-04-25 19:44 30.33543 -90.23742 34906 ft 507 kts 180°
2026-04-25 19:45 30.26523 -90.22926 34909 ft 507 kts 180°
2026-04-25 19:45 30.19505 -90.22112 34913 ft 507 kts 180°
2026-04-25 19:46 30.12481 -90.21297 34916 ft 507 kts 180°
2026-04-25 19:46 30.05439 -90.20483 34912 ft 508 kts 180°
2026-04-25 19:47 29.98454 -90.19675 34920 ft 508 kts 180°
2026-04-25 19:47 29.91411 -90.18863 34916 ft 509 kts 180°
2026-04-25 19:48 29.84363 -90.18050 34908 ft 509 kts 180°
2026-04-25 19:48 29.77314 -90.17239 34898 ft 510 kts 180°
2026-04-25 19:49 29.72584 -90.16696 34906 ft 510 kts 180°
2026-04-25 19:49 29.63170 -90.15615 34907 ft 511 kts 180°
2026-04-25 19:50 29.52551 -90.14398 34889 ft 512 kts 181°
2026-04-25 19:51 29.45459 -90.13587 34915 ft 512 kts 181°
2026-04-25 19:51 29.38359 -90.12776 34918 ft 513 kts 181°
2026-04-25 19:52 29.31247 -90.11965 34912 ft 514 kts 181°
2026-04-25 19:52 29.24127 -90.11153 34889 ft 514 kts 180°
2026-04-25 19:53 29.17013 -90.10134 34898 ft 521 kts 173°
2026-04-25 19:53 29.10094 -90.07438 34921 ft 528 kts 163°
2026-04-25 19:54 29.03231 -90.04362 34912 ft 529 kts 163°
2026-04-25 19:54 28.96353 -90.01354 34910 ft 529 kts 164°
2026-04-25 19:55 28.89460 -89.98414 34929 ft 528 kts 164°
2026-04-25 19:55 28.82638 -89.95517 34905 ft 526 kts 164°
2026-04-25 19:56 28.75775 -89.92607 34915 ft 526 kts 164°
2026-04-25 19:56 28.68914 -89.89707 34915 ft 526 kts 164°
2026-04-25 19:57 28.62006 -89.86795 34901 ft 527 kts 164°
2026-04-25 19:57 28.55170 -89.83900 34910 ft 527 kts 163°
2026-04-25 19:58 28.48246 -89.80971 34915 ft 528 kts 164°
2026-04-25 19:58 28.41347 -89.78065 34912 ft 529 kts 164°
2026-04-25 19:59 28.34490 -89.75178 34894 ft 529 kts 164°
2026-04-25 19:59 28.27580 -89.72271 34910 ft 529 kts 164°
2026-04-25 20:00 28.20671 -89.69368 34913 ft 529 kts 164°
2026-04-25 20:00 28.13754 -89.66465 34916 ft 529 kts 164°
2026-04-25 20:01 28.03397 -89.62124 34897 ft 529 kts 164°
2026-04-25 20:01 27.96486 -89.59233 34912 ft 529 kts 164°
2026-04-25 20:02 27.89568 -89.56343 34914 ft 530 kts 164°
2026-04-25 20:02 27.82686 -89.53471 34912 ft 530 kts 164°
2026-04-25 20:03 27.75759 -89.50584 34911 ft 531 kts 164°
2026-04-25 20:03 27.68828 -89.47700 34908 ft 531 kts 164°
2026-04-25 20:04 27.61891 -89.44817 34910 ft 531 kts 164°
2026-04-25 20:04 27.54957 -89.41939 34906 ft 531 kts 164°
2026-04-25 20:05 27.48026 -89.39065 34910 ft 531 kts 164°
2026-04-25 20:05 27.41096 -89.36197 34909 ft 530 kts 164°
2026-04-25 20:06 27.34164 -89.33333 34910 ft 530 kts 164°
2026-04-25 20:06 27.27233 -89.30471 34909 ft 530 kts 164°
2026-04-25 20:07 27.20302 -89.27613 34910 ft 530 kts 164°
2026-04-25 20:07 27.13424 -89.24780 34899 ft 530 kts 164°
2026-04-25 20:08 27.06493 -89.21945 34916 ft 530 kts 164°
2026-04-25 20:08 26.99547 -89.19142 34910 ft 530 kts 164°
2026-04-25 20:09 26.92613 -89.16352 34910 ft 530 kts 164°
2026-04-25 20:09 26.85675 -89.13557 34886 ft 530 kts 165°
2026-04-25 20:10 26.79918 -89.11239 34902 ft 529 kts 165°
2026-04-25 20:10 26.72979 -89.08448 34906 ft 529 kts 165°
2026-04-25 20:11 26.66040 -89.05661 34908 ft 530 kts 165°
2026-04-25 20:11 26.57980 -89.02428 34907 ft 530 kts 165°
2026-04-25 20:12 26.52195 -89.00110 34905 ft 530 kts 165°
2026-04-25 20:12 26.46372 -88.97780 34913 ft 531 kts 165°
2026-04-25 20:13 26.38235 -88.94528 34907 ft 532 kts 165°
2026-04-25 20:13 26.31314 -88.91766 34912 ft 532 kts 165°
2026-04-25 20:14 26.24330 -88.88982 34897 ft 532 kts 165°
2026-04-25 20:14 26.17397 -88.86219 34903 ft 527 kts 165°
2026-04-25 20:15 26.10476 -88.83468 34917 ft 528 kts 165°
2026-04-25 20:15 26.03543 -88.80717 34915 ft 529 kts 165°
2026-04-25 20:16 25.96598 -88.77963 34911 ft 530 kts 165°
2026-04-25 20:16 25.89673 -88.75217 34898 ft 525 kts 165°
2026-04-25 20:17 25.82804 -88.72498 34910 ft 523 kts 165°
2026-04-25 20:17 25.75936 -88.69787 34913 ft 524 kts 165°
2026-04-25 20:18 25.69054 -88.67073 34908 ft 525 kts 165°
2026-04-25 20:18 25.62171 -88.64360 34891 ft 525 kts 165°
2026-04-25 20:19 25.55342 -88.61670 34905 ft 523 kts 165°
2026-04-25 20:19 25.48480 -88.58972 34910 ft 523 kts 165°
2026-04-25 20:20 25.41610 -88.56274 34907 ft 523 kts 165°
2026-04-25 20:20 25.34734 -88.53577 34908 ft 524 kts 165°
2026-04-25 20:21 25.27890 -88.50895 34893 ft 519 kts 165°
2026-04-25 20:21 25.21101 -88.48237 34898 ft 517 kts 165°
2026-04-25 20:22 25.15451 -88.46031 34920 ft 519 kts 165°
2026-04-25 20:22 25.07469 -88.42917 34911 ft 522 kts 165°
2026-04-25 20:23 25.00617 -88.40241 34900 ft 523 kts 165°
2026-04-25 20:23 24.93779 -88.37577 34899 ft 519 kts 165°
2026-04-25 20:24 24.87013 -88.34946 34908 ft 519 kts 165°
2026-04-25 20:24 24.80190 -88.32297 34911 ft 520 kts 165°
2026-04-25 20:25 24.73362 -88.29647 34899 ft 520 kts 165°
2026-04-25 20:25 24.66535 -88.27000 34905 ft 521 kts 165°
2026-04-25 20:26 24.59695 -88.24351 34906 ft 521 kts 165°
2026-04-25 20:26 24.52856 -88.21705 34904 ft 521 kts 165°
2026-04-25 20:27 24.46027 -88.19046 34904 ft 521 kts 164°
2026-04-25 20:27 24.39209 -88.16328 34901 ft 521 kts 164°
2026-04-25 20:28 24.32398 -88.13607 34904 ft 521 kts 164°
2026-04-25 20:28 24.25577 -88.10894 34910 ft 521 kts 164°
2026-04-25 20:29 24.18755 -88.08189 34915 ft 521 kts 164°
2026-04-25 20:29 24.11998 -88.05512 34893 ft 519 kts 164°
2026-04-25 20:30 24.05161 -88.02808 34887 ft 519 kts 165°
2026-04-25 20:30 23.98349 -88.00117 34906 ft 522 kts 165°
2026-04-25 20:31 23.91554 -87.97436 34907 ft 524 kts 165°
2026-04-25 20:31 23.84688 -87.94728 34904 ft 525 kts 165°
2026-04-25 20:32 23.77812 -87.92020 34898 ft 525 kts 165°
2026-04-25 20:32 23.70944 -87.89317 34880 ft 525 kts 166°
2026-04-25 20:33 23.64061 -87.86612 34901 ft 526 kts 166°
2026-04-25 20:33 23.58328 -87.84362 34902 ft 527 kts 166°
2026-04-25 20:34 23.50251 -87.81193 34894 ft 527 kts 166°
2026-04-25 20:34 23.43344 -87.78487 34889 ft 526 kts 166°
2026-04-25 20:35 23.36452 -87.75790 34887 ft 526 kts 166°
2026-04-25 20:35 23.29567 -87.73097 34889 ft 525 kts 166°
2026-04-25 20:36 23.22735 -87.70427 34906 ft 526 kts 166°
2026-04-25 20:36 23.15845 -87.67738 34895 ft 526 kts 166°
2026-04-25 20:37 23.08948 -87.65049 34890 ft 527 kts 166°
2026-04-25 20:37 23.02060 -87.62365 34883 ft 525 kts 166°
2026-04-25 20:38 22.95179 -87.59687 34886 ft 525 kts 166°
2026-04-25 20:38 22.88293 -87.57010 34885 ft 526 kts 166°
2026-04-25 20:39 22.81405 -87.54336 34883 ft 526 kts 166°
2026-04-25 20:39 22.75684 -87.52105 34853 ft 526 kts 166°
2026-04-25 20:40 22.67678 -87.48964 34874 ft 522 kts 166°
2026-04-25 20:40 22.60840 -87.46290 34885 ft 523 kts 166°
2026-04-25 20:41 22.53989 -87.43648 34877 ft 523 kts 166°
2026-04-25 20:41 22.47124 -87.41033 34878 ft 523 kts 166°
2026-04-25 20:42 22.40263 -87.38414 34872 ft 520 kts 166°
2026-04-25 20:42 22.33453 -87.35854 34872 ft 515 kts 170°
2026-04-25 20:43 22.29969 -87.35156 34874 ft 504 kts 182°
2026-04-25 20:43 22.26498 -87.35144 34878 ft 495 kts 192°
2026-04-25 20:43 22.23107 -87.35698 34489 ft 491 kts 202°
2026-04-25 20:43 22.19853 -87.36787 34058 ft 489 kts 205°
2026-04-25 20:44 22.16616 -87.37923 33478 ft 489 kts 205°
2026-04-25 20:44 22.13393 -87.39047 32915 ft 486 kts 205°
2026-04-25 20:44 22.10163 -87.40156 32357 ft 487 kts 204°
2026-04-25 20:44 22.06924 -87.41253 31832 ft 488 kts 204°
2026-04-25 20:45 22.03678 -87.42340 31304 ft 489 kts 204°
2026-04-25 20:45 22.00496 -87.43394 31131 ft 476 kts 204°
2026-04-25 20:45 21.97380 -87.44417 31032 ft 460 kts 204°
2026-04-25 20:45 21.94378 -87.45403 30942 ft 444 kts 204°
2026-04-25 20:46 21.91474 -87.46360 30855 ft 429 kts 204°
2026-04-25 20:46 21.88662 -87.47290 30776 ft 415 kts 205°
2026-04-25 20:46 21.85948 -87.48189 30660 ft 402 kts 205°
2026-04-25 20:46 21.83299 -87.49070 30357 ft 396 kts 205°
2026-04-25 20:47 21.80673 -87.49948 29880 ft 395 kts 205°
2026-04-25 20:47 21.78048 -87.50825 29317 ft 395 kts 205°
2026-04-25 20:47 21.75429 -87.51697 28786 ft 393 kts 205°
2026-04-25 20:47 21.72827 -87.52560 28318 ft 390 kts 204°
2026-04-25 20:48 21.70240 -87.53416 27859 ft 388 kts 204°
2026-04-25 20:48 21.67670 -87.54267 27397 ft 386 kts 204°
2026-04-25 20:48 21.65109 -87.55115 26942 ft 384 kts 204°
2026-04-25 20:48 21.62559 -87.55957 26502 ft 382 kts 204°
2026-04-25 20:49 21.60026 -87.56794 26071 ft 380 kts 204°
2026-04-25 20:49 21.57504 -87.57628 25645 ft 379 kts 204°
2026-04-25 20:49 21.54991 -87.58458 25231 ft 377 kts 203°
2026-04-25 20:49 21.52491 -87.59283 24822 ft 375 kts 203°
2026-04-25 20:50 21.49993 -87.60085 24419 ft 376 kts 198°
2026-04-25 20:50 21.47347 -87.60224 23967 ft 388 kts 175°
2026-04-25 20:50 21.44767 -87.59348 23590 ft 392 kts 158°
2026-04-25 20:50 21.42308 -87.58105 23231 ft 389 kts 156°
2026-04-25 20:51 21.39883 -87.56834 22800 ft 387 kts 156°
2026-04-25 20:51 21.37470 -87.55567 22376 ft 385 kts 156°
2026-04-25 20:51 21.35069 -87.54321 21981 ft 382 kts 157°
2026-04-25 20:51 21.32679 -87.53093 21597 ft 380 kts 157°
2026-04-25 20:52 21.30299 -87.51881 21211 ft 377 kts 157°
2026-04-25 20:52 21.29531 -87.51491 21086 ft 377 kts 157°
2026-04-25 20:52 21.25608 -87.49503 20463 ft 373 kts 157°
2026-04-25 20:52 21.23269 -87.48320 20099 ft 371 kts 157°
2026-04-25 20:53 21.20941 -87.47143 19732 ft 369 kts 157°
2026-04-25 20:53 21.18624 -87.45972 19378 ft 367 kts 157°
2026-04-25 20:53 21.16326 -87.44811 19024 ft 365 kts 157°
2026-04-25 20:53 21.14034 -87.43654 18673 ft 363 kts 158°
2026-04-25 20:54 21.11759 -87.42504 18322 ft 361 kts 157°
2026-04-25 20:54 21.09489 -87.41359 17998 ft 358 kts 157°
2026-04-25 20:54 21.07245 -87.40226 17634 ft 356 kts 157°
2026-04-25 20:54 21.05015 -87.39101 17269 ft 353 kts 157°
2026-04-25 20:55 21.02801 -87.37983 16916 ft 351 kts 156°
2026-04-25 20:55 21.00598 -87.36873 16563 ft 348 kts 156°
2026-04-25 20:55 20.98422 -87.35775 16220 ft 346 kts 156°
2026-04-25 20:55 20.96247 -87.34679 15875 ft 344 kts 156°
2026-04-25 20:56 20.94112 -87.33603 15529 ft 342 kts 155°
2026-04-25 20:56 20.91968 -87.32523 15215 ft 339 kts 155°
2026-04-25 20:56 20.90532 -87.31799 15014 ft 337 kts 155°
2026-04-25 20:56 20.88447 -87.30749 14737 ft 333 kts 155°
2026-04-25 20:57 20.86366 -87.29701 14514 ft 328 kts 155°
2026-04-25 20:57 20.84314 -87.28669 14239 ft 325 kts 154°
2026-04-25 20:57 20.82273 -87.27642 13912 ft 324 kts 154°
2026-04-25 20:57 20.80241 -87.26621 13598 ft 322 kts 154°
2026-04-25 20:58 20.78222 -87.25606 13269 ft 319 kts 154°
2026-04-25 20:58 20.76219 -87.24600 12969 ft 316 kts 153°
2026-04-25 20:58 20.74239 -87.23604 12649 ft 314 kts 154°
2026-04-25 20:58 20.72266 -87.22613 12324 ft 312 kts 153°
2026-04-25 20:59 20.70312 -87.21629 12017 ft 309 kts 153°
2026-04-25 20:59 20.68371 -87.20656 11702 ft 307 kts 153°
2026-04-25 20:59 20.66445 -87.19689 11414 ft 304 kts 153°
2026-04-25 20:59 20.64531 -87.18728 11112 ft 302 kts 152°
2026-04-25 21:00 20.62827 -87.17472 10762 ft 297 kts 128°
2026-04-25 21:00 20.62029 -87.16307 10584 ft 292 kts 117°
2026-04-25 21:00 20.59981 -87.11919 10200 ft 275 kts 123°
2026-04-25 21:01 20.58587 -87.10583 10108 ft 268 kts 152°
2026-04-25 21:01 20.56814 -87.10110 9936 ft 263 kts 181°
2026-04-25 21:01 20.55031 -87.10457 9717 ft 259 kts 195°
2026-04-25 21:01 20.53314 -87.11002 9391 ft 259 kts 197°
2026-04-25 21:02 20.51621 -87.11561 9268 ft 247 kts 197°
2026-04-25 21:02 20.50050 -87.12084 9181 ft 232 kts 197°
2026-04-25 21:02 20.48534 -87.12590 9069 ft 217 kts 197°
2026-04-25 21:02 20.47123 -87.13059 8817 ft 210 kts 198°
2026-04-25 21:03 20.45729 -87.13524 8392 ft 211 kts 198°
2026-04-25 21:03 20.44332 -87.13986 8029 ft 210 kts 198°
2026-04-25 21:03 20.42939 -87.14428 7705 ft 206 kts 197°
2026-04-25 21:03 20.41597 -87.14854 7387 ft 202 kts 198°
2026-04-25 21:04 20.40223 -87.15283 7009 ft 202 kts 198°
2026-04-25 21:04 20.38876 -87.15701 6672 ft 199 kts 197°
2026-04-25 21:04 20.37570 -87.16101 6318 ft 199 kts 196°
2026-04-25 21:04 20.36260 -87.16501 5995 ft 194 kts 198°
2026-04-25 21:05 20.34984 -87.16891 5817 ft 187 kts 195°
2026-04-25 21:05 20.33677 -87.16710 5307 ft 198 kts 143°
2026-04-25 21:05 20.32945 -87.15537 5014 ft 192 kts 96°
2026-04-25 21:05 20.33100 -87.14171 4867 ft 187 kts 65°
2026-04-25 21:06 20.33911 -87.13098 4684 ft 189 kts 33°
2026-04-25 21:06 20.35065 -87.12419 4523 ft 191 kts 26°
2026-04-25 21:06 20.36263 -87.11807 4333 ft 191 kts 25°
2026-04-25 21:06 20.37058 -87.11406 4207 ft 191 kts 25°
2026-04-25 21:07 20.38661 -87.10588 3983 ft 191 kts 26°
2026-04-25 21:07 20.39858 -87.09974 3815 ft 190 kts 26°
2026-04-25 21:07 20.41047 -87.09362 3650 ft 190 kts 27°
2026-04-25 21:07 20.42218 -87.08756 3476 ft 189 kts 26°
2026-04-25 21:08 20.43401 -87.08146 3310 ft 189 kts 26°
2026-04-25 21:08 20.44581 -87.07539 3139 ft 188 kts 26°
2026-04-25 21:08 20.45756 -87.06929 2960 ft 187 kts 26°
2026-04-25 21:08 20.46926 -87.06321 2791 ft 188 kts 27°
2026-04-25 21:09 20.49311 -87.05078 2446 ft 191 kts 28°
2026-04-25 21:09 20.50501 -87.04459 2279 ft 190 kts 29°
2026-04-25 21:09 20.51695 -87.03839 2099 ft 191 kts 28°
2026-04-25 21:10 20.52883 -87.03225 1935 ft 187 kts 28°
2026-04-25 21:10 20.54043 -87.02610 1746 ft 184 kts 35°
2026-04-25 21:10 20.54868 -87.01566 1656 ft 186 kts 77°
2026-04-25 21:10 20.54833 -87.00275 1636 ft 171 kts 111°
2026-04-25 21:11 20.54345 -86.99123 1143 ft 168 kts 117°
2026-04-25 21:11 20.53852 -86.98060 914 ft 152 kts 117°
2026-04-25 21:11 20.53406 -86.97073 714 ft 145 kts 116°
2026-04-25 21:11 20.52954 -86.96097 521 ft 140 kts 121°
2026-04-25 21:12 20.52531 -86.95170 311 ft 146 kts 114°
2026-04-25 21:12 20.52104 -86.94192 141 ft 148 kts 117°
2026-04-25 21:12 20.51653 -86.93209 36 ft 138 kts 116°
2026-04-25 21:12 20.51394 -86.92638 30 ft 117 kts 116°
2026-04-25 21:13 20.51040 -86.91862 27 ft 59 kts 116°
2026-04-25 21:13 20.50953 -86.91635 29 ft 1 kts 25°
2026-04-25 21:13 20.50990 -86.91686 29 ft 13 kts 281°
2026-04-25 21:13 20.51009 -86.91787 28 ft 14 kts 285°
2026-04-25 21:14 20.51044 -86.91888 27 ft 14 kts 299°
2026-04-25 21:14 20.51094 -86.91987 27 ft 23 kts 295°
2026-04-25 21:14 20.51242 -86.92196 27 ft 39 kts 336°
2026-04-25 21:14 20.51411 -86.92400 29 ft 37 kts 291°
2026-04-25 21:15 20.51525 -86.92646 30 ft 49 kts 294°
2026-04-25 21:15 20.51809 -86.93280 30 ft 136 kts 295°
2026-04-25 21:15 20.52121 -86.93845 30 ft 30 kts 339°